When you browse on this site, cookies collect data to enhance your experience and personalize the content and advertising you see.
Visit our Privacy Policy to learn more. By continuing to use the site, you agree to this use of cookies and data.
  • In Belgium
  • List of Countries
  • For 7 days
  • Water Temperature
  • Satellite Maps
  • Weather Map
  • Weather Widgets
  • user-avatar
    Login

    Hourly Weather Houthalen

    Today, 14 December, Friday

    Time Temperature Precipitation Wind Pressure Humidity
    00:00 -2°C° 0 mm 2 mps 760 mmHg 86%
    01:00 -2°C° 0 mm 2 mps 760 mmHg 86%
    02:00 -2°C° 0 mm 2 mps 760 mmHg 87%
    03:00 -2°C° 0 mm 2 mps 760 mmHg 88%
    04:00 -2°C° 0 mm 2 mps 760 mmHg 89%
    05:00 -2°C° 0 mm 2 mps 760 mmHg 89%
    06:00 -2°C° 0 mm 2 mps 760 mmHg 89%
    07:00 -1°C° 0 mm 2 mps 760 mmHg 85%
    08:00 -1°C° 0 mm 2 mps 761 mmHg 81%
    09:00 +1°C° 0 mm 2 mps 761 mmHg 77%
    10:00 0°C° 0 mm 3 mps 761 mmHg 71%
    11:00 +1°C° 0 mm 3 mps 761 mmHg 65%
    12:00 +1°C° 0 mm 3 mps 761 mmHg 60%
    13:00 +1°C° 0 mm 3 mps 761 mmHg 61%
    14:00 +2°C° 0 mm 2 mps 761 mmHg 62%
    15:00 +2°C° 0 mm 2 mps 761 mmHg 63%
    16:00 +1°C° 0 mm 2 mps 762 mmHg 65%
    17:00 +1°C° 0 mm 2 mps 762 mmHg 66%
    18:00 +1°C° 0 mm 2 mps 762 mmHg 68%
    19:00 -1°C° 0 mm 2 mps 762 mmHg 70%
    20:00 -1°C° 0 mm 2 mps 762 mmHg 71%
    21:00 -1°C° 0 mm 2 mps 762 mmHg 73%
    22:00 -2°C° 0 mm 2 mps 762 mmHg 74%
    23:00 -2°C° 0 mm 2 mps 763 mmHg 76%

    Tomorrow, 15 December, Saturday

    Time Temperature Precipitation Wind Pressure Humidity
    00:00 -3°C° 0 mm 2 mps 763 mmHg 78%
    01:00 -3°C° 0 mm 2 mps 763 mmHg 78%
    02:00 -3°C° 0 mm 2 mps 763 mmHg 78%
    03:00 -3°C° 0 mm 2 mps 763 mmHg 78%
    04:00 -3°C° 0 mm 2 mps 762 mmHg 78%
    05:00 -3°C° 0 mm 2 mps 762 mmHg 77%
    06:00 -3°C° 0 mm 2 mps 762 mmHg 77%
    07:00 -4°C° 0 mm 3 mps 762 mmHg 74%
    08:00 -2°C° 0 mm 3 mps 762 mmHg 72%
    09:00 -2°C° 0 mm 3 mps 762 mmHg 69%
    10:00 -1°C° 0 mm 3 mps 761 mmHg 64%
    11:00 -1°C° 0 mm 4 mps 761 mmHg 59%
    12:00 0°C° 0 mm 4 mps 760 mmHg 54%
    13:00 0°C° 0 mm 4 mps 759 mmHg 55%
    14:00 0°C° 0 mm 4 mps 759 mmHg 56%
    15:00 -1°C° 0 mm 4 mps 758 mmHg 58%
    16:00 -1°C° 0 mm 5 mps 758 mmHg 57%
    17:00 -1°C° 0 mm 5 mps 757 mmHg 57%
    18:00 -2°C° 0 mm 6 mps 756 mmHg 57%
    19:00 -2°C° 0.1 mm 6 mps 755 mmHg 55%
    20:00 -1°C° 0.1 mm 7 mps 755 mmHg 54%
    21:00 -1°C° 0.1 mm 7 mps 754 mmHg 53%
    22:00 -1°C° 1.5 mm 7 mps 753 mmHg 60%
    23:00 -1°C° 1.5 mm 7 mps 752 mmHg 68%

    Day after tomorrow, 16 December, Sunday

    Time Temperature Precipitation Wind Pressure Humidity
    00:00 -1°C° 1.5 mm 7 mps 751 mmHg 75%
    01:00 0°C° 0.9 mm 7 mps 751 mmHg 80%
    02:00 +1°C° 0.9 mm 6 mps 750 mmHg 84%
    03:00 +1°C° 0.9 mm 6 mps 750 mmHg 88%
    04:00 +1°C° 0.1 mm 6 mps 750 mmHg 89%
    05:00 +1°C° 0.1 mm 6 mps 750 mmHg 90%
    06:00 +2°C° 0.1 mm 6 mps 750 mmHg 91%
    07:00 +2°C° 0.1 mm 5 mps 750 mmHg 92%
    08:00 +2°C° 0.1 mm 5 mps 751 mmHg 92%
    09:00 +2°C° 0.1 mm 5 mps 751 mmHg 93%
    10:00 +2°C° 0.1 mm 5 mps 751 mmHg 92%
    11:00 +3°C° 0.1 mm 5 mps 751 mmHg 92%
    12:00 +3°C° 0.1 mm 5 mps 752 mmHg 91%
    13:00 +4°C° 0.2 mm 4 mps 752 mmHg 92%
    14:00 +3°C° 0.2 mm 4 mps 752 mmHg 93%
    15:00 +3°C° 0.2 mm 4 mps 752 mmHg 94%
    16:00 +3°C° 0 mm 4 mps 753 mmHg 94%
    17:00 +1°C° 0 mm 4 mps 753 mmHg 94%
    18:00 +1°C° 0 mm 4 mps 753 mmHg 95%
    19:00 +1°C° 0 mm 4 mps 754 mmHg 94%
    20:00 +2°C° 0 mm 3 mps 754 mmHg 94%
    21:00 +2°C° 0 mm 3 mps 754 mmHg 94%
    22:00 +2°C° 0 mm 3 mps 754 mmHg 94%
    23:00 +2°C° 0 mm 3 mps 755 mmHg 94%

    17 December, Monday

    Time Temperature Precipitation Wind Pressure Humidity
    00:00 +2°C° 0 mm 3 mps 755 mmHg 94%
    01:00 +2°C° 0 mm 3 mps 755 mmHg 94%
    02:00 +2°C° 0 mm 3 mps 755 mmHg 93%
    03:00 +2°C° 0 mm 3 mps 755 mmHg 93%
    04:00 +2°C° 0 mm 3 mps 755 mmHg 93%
    05:00 +2°C° 0 mm 3 mps 755 mmHg 93%
    06:00 +2°C° 0 mm 3 mps 755 mmHg 93%
    07:00 +2°C° 0.2 mm 3 mps 756 mmHg 93%
    08:00 +4°C° 0.2 mm 2 mps 756 mmHg 92%
    09:00 +4°C° 0.2 mm 2 mps 757 mmHg 92%
    10:00 +4°C° 0.4 mm 2 mps 757 mmHg 92%
    11:00 +5°C° 0.4 mm 2 mps 758 mmHg 91%
    12:00 +5°C° 0.4 mm 2 mps 758 mmHg 90%
    13:00 +5°C° 0 mm 2 mps 758 mmHg 92%
    14:00 +5°C° 0 mm 2 mps 759 mmHg 93%
    15:00 +4°C° 0 mm 2 mps 759 mmHg 94%
    16:00 +4°C° 0 mm 2 mps 759 mmHg 95%
    17:00 +4°C° 0 mm 2 mps 760 mmHg 95%
    18:00 +2°C° 0 mm 3 mps 760 mmHg 95%
    19:00 +2°C° 0 mm 3 mps 761 mmHg 95%
    20:00 +2°C° 0 mm 3 mps 761 mmHg 95%
    21:00 +2°C° 0 mm 3 mps 761 mmHg 94%
    22:00 +2°C° 0 mm 3 mps 761 mmHg 94%
    23:00 +1°C° 0 mm 4 mps 761 mmHg 94%

    18 December, Tuesday

    Time Temperature Precipitation Wind Pressure Humidity
    00:00 +1°C° 0 mm 4 mps 761 mmHg 93%
    01:00 +1°C° 0 mm 4 mps 761 mmHg 93%
    02:00 +1°C° 0 mm 4 mps 761 mmHg 93%
    03:00 +1°C° 0 mm 4 mps 761 mmHg 92%
    04:00 +1°C° 0 mm 4 mps 760 mmHg 92%
    05:00 +2°C° 0 mm 5 mps 760 mmHg 92%
    06:00 +2°C° 0 mm 5 mps 760 mmHg 92%
    07:00 +2°C° 0 mm 5 mps 760 mmHg 91%
    08:00 +2°C° 0 mm 5 mps 760 mmHg 89%
    09:00 +3°C° 0 mm 5 mps 759 mmHg 88%
    10:00 +4°C° 0 mm 6 mps 758 mmHg 82%
    11:00 +4°C° 0 mm 6 mps 757 mmHg 77%
    12:00 +5°C° 0 mm 6 mps 757 mmHg 71%
    13:00 +5°C° 0 mm 6 mps 756 mmHg 69%
    14:00 +5°C° 0 mm 6 mps 755 mmHg 67%
    15:00 +4°C° 0 mm 6 mps 754 mmHg 65%
    16:00 +4°C° 0 mm 6 mps 753 mmHg 64%
    17:00 +4°C° 0 mm 7 mps 753 mmHg 64%
    18:00 +4°C° 0 mm 7 mps 752 mmHg 64%
    19:00 +4°C° 0.5 mm 7 mps 752 mmHg 69%
    20:00 +4°C° 0.5 mm 7 mps 752 mmHg 73%
    21:00 +4°C° 0.5 mm 6 mps 752 mmHg 77%
    22:00 +4°C° 0.6 mm 6 mps 752 mmHg 80%
    23:00 +5°C° 0.6 mm 6 mps 752 mmHg 83%

    19 December, Wednesday

    Time Temperature Precipitation Wind Pressure Humidity
    00:00 +5°C° 0.6 mm 6 mps 752 mmHg 87%
    01:00 +6°C° 0 mm 5 mps 752 mmHg 88%
    02:00 +5°C° 0 mm 5 mps 752 mmHg 90%
    03:00 +5°C° 0 mm 5 mps 752 mmHg 92%
    04:00 +5°C° 0 mm 5 mps 752 mmHg 91%
    05:00 +5°C° 0 mm 5 mps 752 mmHg 91%
    06:00 +5°C° 0 mm 5 mps 752 mmHg 91%
    07:00 +5°C° 0 mm 5 mps 752 mmHg 89%
    08:00 +4°C° 0 mm 6 mps 752 mmHg 88%
    09:00 +4°C° 0 mm 6 mps 752 mmHg 87%
    10:00 +5°C° 0.3 mm 6 mps 752 mmHg 85%
    11:00 +5°C° 0.3 mm 6 mps 752 mmHg 84%
    12:00 +6°C° 0.3 mm 7 mps 751 mmHg 83%
    13:00 +5°C° 0.1 mm 6 mps 752 mmHg 83%
    14:00 +6°C° 0.1 mm 5 mps 752 mmHg 82%
    15:00 +6°C° 0.1 mm 5 mps 752 mmHg 82%
    16:00 +6°C° 0 mm 5 mps 752 mmHg 82%
    17:00 +5°C° 0 mm 5 mps 752 mmHg 83%
    18:00 +5°C° 0 mm 5 mps 752 mmHg 83%
    19:00 +5°C° 0 mm 5 mps 752 mmHg 83%
    20:00 +4°C° 0 mm 6 mps 752 mmHg 84%
    21:00 +4°C° 0 mm 6 mps 752 mmHg 84%
    22:00 +4°C° 0 mm 6 mps 751 mmHg 84%
    23:00 +4°C° 0 mm 6 mps 751 mmHg 85%
    Show more